APRIZESAT 4 (35684 NORAD) Tracking and Keplerian Element Data

This shows tracking and keplerian element data for the satellite.

Feedback or suggestion? Click here.




ElementValue
Catalog35684
NameAPRIZESAT 4
Epoch Orbit83747
Epoch Day34.74428331
Epoch Year2025
RAAN93.8055
Inclination98.2043
Eccentricity0.0045296
Argument of Perigee134.6969
Mean Anonmoly225.7947
Mean Motion14.82586161
Decay Rate1.958E-05
L11 35684U 09041D 25034.74428331 .00001958 00000+0 24618-3 0 9992
L22 35684 98.2043 93.8055 0045296 134.6969 225.7947 14.82586161837475



Live tracking and technical data element details for APRIZESAT 4 (NORAD 35684). APRIZESAT 4 can be tracked NOW for your location showing map with azimuth and elevation plus other details from your city location.







IsCatalogInMostPopularTable: catalog: 35684, numindb: 346
Update: records affected: 1



GetName: 35684 APRIZESAT 4

Hit Count: updated at: Thu, 22 May 2025 03:19:31 GMT